Kake, AK

8:18 AM AKDT on April 30, 2017 (GMT -0800)
Kake

Weather History for PAFE - February, 2013

Change the Weather History Date:

Sunday, February 10, 2013

  Actual Average Record
Temperature  
Mean Temperature 40 °F -  
Max Temperature 42 °F 36 °F 51 °F (2016)
Min Temperature 37 °F 28 °F 23 °F (2000)
Degree Days  
Heating Degree Days 26    
Moisture  
Dew Point 36 °F    
Average Humidity 84    
Maximum Humidity 93    
Minimum Humidity 76    
Precipitation  
Precipitation 0.54 in - - ()
Sea Level Pressure  
Sea Level Pressure 30.04 in    
Wind  
Wind Speed 13 mph (SE)    
Max Wind Speed 21 mph    
Max Gust Speed 33 mph    
Visibility 10 miles    
Events      
Averages and records for this station are not official NWS values.
T = Trace of Precipitation, MM = Missing Value Source: NWS Daily Summary

Daily Weather History Graph

Daily Weather History Graph

Search for Another Location

Airport or City:

Trip Planner

Search our weather history database for the weather conditions in past years. The results will help you decide how hot, cold, wet, or windy it might be!

Date:

Astronomy

Feb. 10, 2013 Rise Set
Actual Time 7:34 AM AKST 4:46 PM AKST
Civil Twilight 6:53 AM AKST 5:27 PM AKST
Nautical Twilight 6:08 AM AKST 6:12 PM AKST
Astronomical Twilight 5:24 AM AKST 6:56 PM AKST
Moon 7:11 AM AKST (2/10) 6:08 PM AKST (2/10)
Length of Visible Light 10h 33m
Length of Day
9h 12m
New Moon, 0% of the Moon is Illuminated
Feb 10
New Moon
Feb 17
First Quarter
Feb 25
Full
Mar 4
Last Quarter
Mar 11
New

Hourly Weather History & Observations

Time (AKST) Temp. Windchill Dew Point Humidity Pressure Visibility Wind Dir Wind Speed Gust Speed Precip Events Conditions
12:16 AM 42.8 °F 35.1 °F 37.4 °F 81% 30.07 in 10.0 mi SE 16.1 mph 21.9 mph N/A   Overcast
12:36 AM 42.8 °F 35.1 °F 37.4 °F 81% 30.07 in 10.0 mi SE 16.1 mph 27.6 mph N/A   Overcast
12:56 AM 42.8 °F 34.5 °F 37.4 °F 81% 30.05 in 10.0 mi SE 18.4 mph 27.6 mph N/A   Overcast
1:16 AM 42.8 °F 34.0 °F 37.4 °F 81% 30.05 in 8.0 mi SE 20.7 mph 33.4 mph N/A   Mostly Cloudy
1:36 AM 42.8 °F 34.0 °F 37.4 °F 81% 30.06 in 8.0 mi SE 20.7 mph 29.9 mph 0.01 in   Overcast
1:56 AM 42.8 °F 36.6 °F 37.4 °F 81% 30.07 in 10.0 mi SSE 11.5 mph 19.6 mph 0.04 in   Overcast
2:16 AM 41.0 °F 33.9 °F 37.4 °F 87% 30.07 in 10.0 mi SE 12.7 mph - 0.04 in   Overcast
2:36 AM 41.0 °F 33.9 °F 37.4 °F 87% 30.07 in 10.0 mi SSE 12.7 mph - 0.08 in   Overcast
2:56 AM 41.0 °F 33.5 °F 37.4 °F 87% 30.06 in 10.0 mi SE 13.8 mph - 0.13 in   Overcast
3:16 AM 41.0 °F 33.9 °F 37.4 °F 87% 30.06 in 10.0 mi SE 12.7 mph 20.7 mph 0.06 in   Overcast
3:36 AM 41.0 °F 33.9 °F 37.4 °F 87% 30.05 in 10.0 mi SE 12.7 mph 24.2 mph 0.11 in   Overcast
3:56 AM 41.0 °F 33.5 °F 37.4 °F 87% 30.05 in 10.0 mi SE 13.8 mph 21.9 mph 0.16 in   Overcast
4:16 AM 41.0 °F 33.1 °F 37.4 °F 87% 30.05 in 10.0 mi SE 15.0 mph 21.9 mph 0.05 in   Overcast
4:36 AM 41.0 °F 33.5 °F 37.4 °F 87% 30.05 in 10.0 mi SE 13.8 mph 23.0 mph 0.09 in   Overcast
4:56 AM 41.0 °F 33.5 °F 37.4 °F 87% 30.05 in 10.0 mi SE 13.8 mph 23.0 mph 0.12 in   Overcast
5:16 AM 41.0 °F 33.5 °F 37.4 °F 87% 30.04 in 10.0 mi SE 13.8 mph 17.3 mph 0.03 in   Overcast
5:36 AM 41.0 °F 33.9 °F 37.4 °F 87% 30.04 in 10.0 mi SE 12.7 mph 17.3 mph 0.06 in   Overcast
5:56 AM 41.0 °F 33.9 °F 37.4 °F 87% 30.03 in 10.0 mi SE 12.7 mph 17.3 mph 0.07 in   Overcast
6:16 AM 42.8 °F 35.4 °F 37.4 °F 81% 30.01 in 10.0 mi SE 15.0 mph 19.6 mph 0.01 in   Overcast
6:36 AM 41.0 °F 32.8 °F 37.4 °F 87% 30.02 in 10.0 mi SE 16.1 mph 21.9 mph 0.01 in   Overcast
6:56 AM 41.0 °F 33.9 °F 37.4 °F 87% 30.02 in 10.0 mi SE 12.7 mph 20.7 mph 0.01 in   Overcast
7:16 AM 41.0 °F 33.5 °F 37.4 °F 87% 30.02 in 10.0 mi ESE 13.8 mph 18.4 mph N/A   Overcast
7:36 AM 41.0 °F 33.9 °F 37.4 °F 87% 30.02 in 10.0 mi ESE 12.7 mph 19.6 mph N/A   Overcast
7:56 AM 39.2 °F 31.6 °F 37.4 °F 93% 30.02 in 10.0 mi SE 12.7 mph 18.4 mph N/A   Mostly Cloudy
8:16 AM 41.0 °F 33.9 °F 37.4 °F 87% 30.01 in 10.0 mi SE 12.7 mph 18.4 mph N/A   Mostly Cloudy
8:36 AM 41.0 °F 33.5 °F 37.4 °F 87% 30.01 in 10.0 mi SSE 13.8 mph 19.6 mph N/A   Overcast
8:56 AM 41.0 °F 33.9 °F 37.4 °F 87% 30.01 in 10.0 mi SE 12.7 mph 19.6 mph N/A   Scattered Clouds
9:16 AM 42.8 °F 37.0 °F 39.2 °F 87% 30.01 in 10.0 mi SE 10.4 mph - N/A   Scattered Clouds
9:36 AM 42.8 °F 36.6 °F 39.2 °F 87% 30.02 in 10.0 mi SSE 11.5 mph - N/A   Mostly Cloudy
9:56 AM 42.8 °F 38.6 °F 37.4 °F 81% 30.03 in 10.0 mi SSE 6.9 mph - N/A   Overcast
10:16 AM 42.8 °F 38.0 °F 37.4 °F 81% 30.04 in 10.0 mi SSE 8.1 mph - N/A   Overcast
10:36 AM 42.8 °F 37.5 °F 37.4 °F 81% 30.04 in 10.0 mi SSE 9.2 mph 18.4 mph N/A   Mostly Cloudy
10:56 AM 42.8 °F 36.6 °F 39.2 °F 87% 30.05 in 10.0 mi SSE 11.5 mph - N/A   Mostly Cloudy
11:16 AM 42.8 °F 37.5 °F 37.4 °F 81% 30.05 in 10.0 mi SSE 9.2 mph - N/A   Partly Cloudy
11:36 AM 42.8 °F 38.0 °F 37.4 °F 81% 30.06 in 10.0 mi South 8.1 mph - N/A   Mostly Cloudy
11:56 AM 42.8 °F 36.6 °F 37.4 °F 81% 30.06 in 10.0 mi SSE 11.5 mph 17.3 mph N/A   Overcast
12:16 PM 42.8 °F 36.6 °F 35.6 °F 76% 30.05 in 10.0 mi SSE 11.5 mph 17.3 mph N/A   Overcast
12:36 PM 42.8 °F 38.0 °F 35.6 °F 76% 30.06 in 10.0 mi SSE 8.1 mph - N/A   Overcast
12:56 PM 42.8 °F 36.6 °F 35.6 °F 76% 30.05 in 10.0 mi SE 11.5 mph - N/A   Mostly Cloudy
1:16 PM 41.0 °F 34.7 °F 35.6 °F 81% 30.05 in 10.0 mi SSE 10.4 mph 16.1 mph N/A   Overcast
1:36 PM 41.0 °F 35.2 °F 35.6 °F 81% 30.05 in 10.0 mi SSE 9.2 mph - N/A   Overcast
1:56 PM 41.0 °F 33.9 °F 35.6 °F 81% 30.05 in 10.0 mi SSE 12.7 mph - N/A   Overcast
2:16 PM 41.0 °F 34.7 °F 35.6 °F 81% 30.05 in 10.0 mi SSE 10.4 mph 16.1 mph N/A   Overcast
2:36 PM 41.0 °F 33.9 °F 35.6 °F 81% 30.04 in 10.0 mi SSE 12.7 mph 19.6 mph N/A   Overcast
2:56 PM 41.0 °F 33.9 °F 35.6 °F 81% 30.05 in 10.0 mi SSE 12.7 mph 19.6 mph N/A   Mostly Cloudy
3:16 PM 41.0 °F 35.2 °F 35.6 °F 81% 30.05 in 10.0 mi SSE 9.2 mph - N/A   Overcast
3:36 PM 41.0 °F 33.5 °F 35.6 °F 81% 30.05 in 10.0 mi SSE 13.8 mph 19.6 mph N/A   Overcast
3:56 PM 39.2 °F 31.2 °F 35.6 °F 87% 30.05 in 10.0 mi SSE 13.8 mph 19.6 mph N/A   Overcast
4:16 PM 39.2 °F 32.0 °F 35.6 °F 87% 30.05 in 10.0 mi SSE 11.5 mph 19.6 mph N/A   Overcast
4:36 PM 39.2 °F 32.0 °F 33.8 °F 81% 30.05 in 10.0 mi SE 11.5 mph 17.3 mph N/A   Overcast
4:56 PM 39.2 °F 33.6 °F 33.8 °F 81% 30.05 in 10.0 mi ESE 8.1 mph - N/A   Overcast
5:16 PM 39.2 °F 32.5 °F 33.8 °F 81% 30.05 in 10.0 mi SE 10.4 mph 16.1 mph N/A   Mostly Cloudy
5:36 PM 39.2 °F 33.6 °F 33.8 °F 81% 30.05 in 10.0 mi SSE 8.1 mph - N/A   Overcast
5:56 PM 39.2 °F 32.5 °F 35.6 °F 87% 30.04 in 10.0 mi ESE 10.4 mph - N/A   Overcast
6:16 PM 39.2 °F 32.5 °F 35.6 °F 87% 30.04 in 10.0 mi SE 10.4 mph - N/A   Overcast
6:36 PM 39.2 °F 32.5 °F 33.8 °F 81% 30.04 in 10.0 mi SE 10.4 mph - N/A   Overcast
6:56 PM 39.2 °F 33.0 °F 33.8 °F 81% 30.04 in 10.0 mi ESE 9.2 mph - N/A   Overcast
7:16 PM 37.4 °F 29.8 °F 33.8 °F 87% 30.05 in 10.0 mi SE 11.5 mph 16.1 mph N/A   Overcast
7:36 PM 37.4 °F 29.3 °F 33.8 °F 87% 30.05 in 10.0 mi SE 12.7 mph 18.4 mph N/A   Overcast
7:56 PM 37.4 °F 30.3 °F 33.8 °F 87% 30.04 in 10.0 mi ESE 10.4 mph - N/A   Mostly Cloudy
8:16 PM 37.4 °F 30.8 °F 33.8 °F 87% 30.05 in 10.0 mi ESE 9.2 mph - N/A   Overcast
8:36 PM 37.4 °F 29.3 °F 33.8 °F 87% 30.05 in 10.0 mi SE 12.7 mph 16.1 mph N/A   Overcast
8:56 PM 37.4 °F 30.3 °F 33.8 °F 87% 30.04 in 10.0 mi SE 10.4 mph - N/A   Overcast
9:16 PM 37.4 °F 29.8 °F 33.8 °F 87% 30.04 in 10.0 mi SE 11.5 mph - N/A   Mostly Cloudy
9:36 PM 37.4 °F 29.8 °F 33.8 °F 87% 30.03 in 10.0 mi ESE 11.5 mph - N/A   Overcast
9:56 PM 37.4 °F 30.3 °F 33.8 °F 87% 30.02 in 10.0 mi SE 10.4 mph - N/A   Overcast
10:16 PM 37.4 °F 31.4 °F 33.8 °F 87% 30.01 in 10.0 mi SE 8.1 mph - N/A   Overcast
10:36 PM 37.4 °F 30.3 °F 33.8 °F 87% 30.01 in 10.0 mi SE 10.4 mph - N/A   Mostly Cloudy
10:56 PM 37.4 °F 29.3 °F 33.8 °F 87% 30.00 in 10.0 mi SE 12.7 mph - N/A   Overcast
11:16 PM 37.4 °F 28.9 °F 33.8 °F 87% 30.01 in 10.0 mi SE 13.8 mph - 0.01 in   Overcast
11:36 PM 37.4 °F 29.8 °F 33.8 °F 87% 30.00 in 10.0 mi SSE 11.5 mph - 0.01 in   Overcast
11:56 PM 37.4 °F 29.8 °F 33.8 °F 87% 30.01 in 10.0 mi SSE 11.5 mph - 0.01 in   Overcast